Dewpoint
69 69 70 69 69 69 69 70 69 69 69 69 69 68 67 66 66 67 67 66 65 65 64 64 64 65 66 66 66 67 67 67 67 66 65 66 65 65 64 63 63 63 63 63 62 62 62 61 61 62 62 62 61 61 60 58 58 58 57 56 56 55 53 52 49 50 50 54 47 46 40 37 33 34 34 37 37 39 40 38 45 46 44 42 41
69 69 69 69 69 69 69 69 69 69 69 69 69 68 68 67 67 67 67 66 66 65 65 64 64 65 64 65 65 66 66 67 67 66 65 65 64 64 64 62 61 61 62 61 61 61 61 60 59 60 61 60 61 58 57 56 55 55 54 56 53 54 53 51 49 48 47 51 47 40 41 38 33 32 34 37 36 35 33 35 42 40 39 40 39
69 69 69 69 69 69 69 69 68 69 69 69 69 68 68 67 67 67 66 67 66 65 65 65 64 64 64 65 65 65 66 66 66 65 65 64 63 63 63 62 62 61 62 61 60 60 59 59 59 59 61 60 60 59 57 56 53 52 55 54 51 50 50 50 50 47 49 48 48 40 42 42 42 34 30 37 37 37 34 35 35 38 38 40 40
68 68 68 69 69 69 69 69 68 68 68 68 68 68 68 68 67 67 66 67 66 66 66 65 65 64 64 64 64 65 66 66 65 65 64 63 63 63 62 62 62 61 61 60 59 59 59 58 58 59 60 59 59 58 57 57 55 54 53 51 48 51 51 51 49 47 49 47 45 40 44 44 41 36 39 37 39 36 33 35 30 31 32 43 38
67 68 68 68 68 68 69 69 68 68 68 68 68 69 68 67 67 66 66 67 66 66 65 65 65 64 64 64 64 64 65 65 64 64 64 64 63 63 62 61 61 61 60 60 61 59 59 58 58 57 58 59 58 57 55 55 52 52 49 47 46 47 50 51 47 46 48 48 48 46 43 42 42 36 33 32 38 37 38 37 38 33 35 35 41
68 68 68 67 68 68 68 69 68 68 68 68 69 69 68 68 67 66 65 66 67 66 66 64 64 63 63 63 63 63 64 65 64 64 63 63 63 62 62 61 61 60 60 60 59 59 59 58 58 57 57 57 57 57 55 54 52 50 49 46 44 47 48 51 48 47 43 50 47 45 44 42 40 40 34 35 36 34 31 32 38 42 42 42 42
67 68 67 67 67 68 68 68 68 68 68 68 68 68 68 68 67 66 65 66 66 66 66 65 64 63 63 63 62 63 64 64 64 64 63 63 62 62 61 61 61 61 60 60 59 59 58 58 58 57 56 56 57 56 54 53 52 51 50 50 48 47 49 49 45 46 47 47 45 43 43 44 43 41 35 33 34 33 37 40 40 39 41 40 44
66 66 67 67 66 67 68 68 68 68 68 68 68 68 68 68 67 66 66 66 66 66 65 65 65 64 63 62 62 63 63 63 64 64 63 63 62 61 61 61 60 61 61 60 59 59 58 58 57 57 56 56 56 55 54 52 52 51 50 50 49 49 48 48 46 47 46 44 43 44 42 42 42 44 41 35 31 34 37 38 38 41 45 47 43
66 66 66 66 67 67 67 67 67 67 67 68 68 68 68 67 67 67 66 66 66 66 66 65 65 64 63 63 62 63 63 64 63 63 63 62 62 61 61 61 60 60 60 59 59 58 58 57 57 56 57 59 55 55 54 54 52 49 49 50 48 50 48 48 47 45 43 42 43 45 42 41 40 40 39 39 35 38 41 37 38 41 40 40 40
67 66 66 66 67 67 67 67 67 67 67 67 67 68 68 67 67 66 66 66 66 66 66 65 65 64 63 62 62 63 64 64 61 57 58 61 61 61 61 61 60 60 59 58 58 57 57 57 57 58 57 56 53 50 48 49 51 51 50 49 48 50 48 46 43 42 43 42 41 44 41 41 40 39 38 42 41 40 44 43 41 42 41 40 44
67 66 66 66 67 67 67 66 66 66 66 67 67 67 68 67 67 66 66 66 66 66 66 65 64 64 63 62 62 63 63 62 55 52 52 54 60 61 61 60 60 59 58 58 57 56 57 55 56 56 56 55 51 47 45 42 41 42 45 49 53 49 46 43 41 42 42 42 42 43 41 40 41 40 38 42 42 41 44 44 43 42 42 40 38
65 66 66 66 66 66 66 66 65 66 66 66 67 67 67 67 67 66 66 66 66 66 66 65 65 64 64 63 63 62 63 58 50 50 50 50 55 61 61 60 60 59 58 57 56 55 55 54 54 57 53 51 47 44 43 42 40 40 40 41 41 41 46 47 44 42 43 42 42 41 41 41 41 41 38 40 42 42 43 42 42 42 41 40 40
66 66 65 65 65 66 66 65 64 65 66 66 66 66 67 67 66 66 66 66 66 66 66 66 65 64 64 63 62 62 62 53 48 49 49 49 50 57 60 60 59 58 58 57 55 54 54 54 53 54 52 52 49 45 43 42 42 41 42 42 40 37 34 34 38 50 50 47 43 42 41 42 40 41 43 42 45 42 43 40 41 41 41 41 42
65 65 65 64 64 66 66 65 65 65 65 65 65 66 66 66 66 66 66 66 66 66 66 66 65 64 64 63 63 62 62 51 48 48 48 48 48 53 60 60 59 58 57 56 56 55 54 53 52 53 52 49 47 47 44 42 41 40 41 43 44 42 37 35 34 34 43 49 49 45 45 43 41 44 45 44 43 44 44 42 44 43 43 43 45
63 64 64 64 63 63 64 64 65 65 64 64 65 65 66 67 67 66 66 66 66 65 65 65 65 64 64 64 63 63 63 48 47 47 47 47 47 52 59 60 59 57 57 57 56 55 55 54 52 53 51 49 48 47 46 44 42 43 43 43 45 44 45 47 46 48 49 50 48 50 50 46 47 49 48 46 45 45 45 45 46 46 44 42 39
60 62 63 63 62 62 63 64 64 64 64 64 64 65 66 67 66 66 66 66 66 66 66 65 65 64 64 64 63 63 64 46 46 46 46 46 46 57 59 59 58 57 57 56 56 55 54 54 52 53 51 50 48 43 44 44 42 41 42 42 43 44 45 46 44 45 49 51 50 48 45 43 47 50 50 46 47 46 45 46 42 40 39 38 37
57 59 61 62 61 62 63 63 63 64 64 64 64 65 66 66 66 67 66 66 66 65 65 65 65 64 64 64 63 62 57 47 45 46 46 46 48 57 59 59 57 57 56 56 55 54 54 53 52 52 51 50 45 40 40 42 41 40 39 40 42 42 42 46 40 38 37 36 36 36 36 36 37 37 38 41 47 45 43 42 41 41 39 39 40
54 56 59 60 59 59 61 62 62 63 64 64 64 64 65 66 66 66 66 66 65 65 65 65 65 64 64 63 63 62 57 48 44 44 45 45 51 57 58 58 58 56 56 56 55 54 53 53 53 51 51 49 40 38 38 41 40 39 38 39 40 41 43 44 43 43 37 36 36 36 35 36 37 36 36 35 35 41 43 41 40 39 40 39 37
49 52 54 57 58 58 60 61 62 63 64 64 64 64 65 66 66 66 66 66 65 65 64 64 65 64 64 64 59 62 57 49 43 44 44 45 51 58 58 57 57 56 55 55 54 54 52 52 52 50 51 47 38 37 37 41 42 40 40 40 40 41 44 43 42 41 42 41 42 43 42 41 44 44 42 36 35 39 41 40 40 37 37 36 37
48 52 54 55 57 58 60 61 62 63 64 64 64 64 65 65 66 66 66 65 65 65 64 64 64 64 64 63 63 63 57 51 45 43 44 44 48 57 57 57 57 56 54 54 53 52 51 51 48 43 42 39 37 37 37 39 43 43 43 41 42 42 47 47 47 44 40 40 41 43 44 44 44 45 45 40 40 43 42 41 39 39 39 37 38
50 53 54 54 56 58 60 61 61 63 64 64 64 64 65 65 65 66 65 65 65 65 64 64 64 64 63 63 63 63 57 52 48 42 43 44 46 51 57 57 57 55 54 53 52 51 50 49 48 43 39 38 37 37 37 38 43 49 48 49 50 49 47 49 47 46 42 41 40 41 42 43 43 42 42 43 40 40 41 40 41 41 39 38 35
51 50 53 52 53 58 60 60 61 62 63 64 64 64 65 65 65 66 65 65 65 64 64 63 63 63 63 63 62 62 56 50 49 42 42 43 45 48 55 56 56 55 54 53 51 50 49 48 48 42 38 37 37 37 37 38 42 50 50 45 41 43 45 46 46 43 43 40 37 36 37 36 37 40 40 39 41 41 40 39 39 39 40 40 39
51 48 52 54 54 56 59 62 63 64 64 64 64 64 65 65 65 65 65 64 64 64 64 63 63 62 63 62 62 62 57 51 46 44 42 43 43 45 48 52 48 55 54 53 51 50 49 48 47 40 37 37 37 37 37 37 41 46 36 37 39 37 39 45 43 41 40 37 35 34 34 35 35 35 38 39 40 42 41 40 39 39 40 40 41
57 50 53 61 61 59 58 60 63 64 64 64 65 65 65 65 64 65 65 64 64 64 63 63 62 62 62 62 61 62 57 53 46 44 44 41 43 44 44 47 47 53 53 52 51 49 48 48 43 38 37 37 37 37 37 37 41 37 35 35 34 35 40 43 41 40 39 38 37 34 34 34 35 36 37 40 41 43 44 43 42 42 40 41 40
59 59 62 63 62 63 65 64 65 65 65 65 65 64 64 64 64 65 64 64 64 63 63 62 62 61 61 60 60 59 54 52 48 44 43 42 42 42 42 43 44 45 50 51 49 48 44 41 38 37 37 37 36 36 37 37 36 36 35 35 38 40 41 41 41 42 39 38 38 39 37 36 35 37 40 42 43 44 44 45 45 44 43 43 42
58 59 60 61 62 62 64 64 65 65 65 64 64 64 64 63 64 65 65 64 63 63 62 62 61 61 60 60 60 56 53 50 49 47 44 43 42 42 42 41 43 44 47 49 44 41 40 38 38 37 37 37 38 39 40 40 36 36 35 37 41 42 41 41 40 40 40 40 38 36 35 37 37 39 42 44 43 42 42 42 41 41 42 42 41
57 59 60 59 60 63 63 64 64 65 65 64 64 64 64 64 64 63 64 64 63 62 62 61 61 60 59 59 59 54 52 50 49 47 46 46 46 45 45 45 42 41 45 43 41 41 39 39 39 38 38 38 39 39 39 39 38 37 38 38 39 40 42 42 40 39 38 38 38 37 36 35 35 36 41 40 40 39 40 41 40 39 40 40 39
58 59 58 58 58 58 58 52 59 63 64 64 64 64 64 64 64 64 63 63 63 62 62 61 60 60 59 59 58 55 53 51 49 47 46 46 47 47 48 47 46 47 45 44 43 42 41 39 39 41 41 41 41 41 41 40 38 37 37 37 37 38 40 41 40 39 38 37 36 37 37 39 37 39 39 38 36 36 36 39 39 38 37 36 33
58 59 58 58 57 55 56 57 58 61 63 62 64 64 65 64 64 64 65 65 64 63 62 61 60 60 60 58 58 56 54 53 52 45 46 44 45 49 48 48 49 47 45 42 44 43 41 41 42 41 40 39 39 40 39 39 38 38 39 38 37 37 38 38 38 37 36 36 35 36 37 38 37 37 36 34 35 34 37 39 40 39 36 33 30
59 58 58 59 59 58 57 57 59 59 60 59 61 56 41 42 54 64 62 53 53 53 54 59 60 60 59 58 57 56 55 55 48 44 43 42 42 44 45 44 44 47 43 41 44 45 45 43 42 41 40 39 38 38 38 38 37 37 38 36 36 35 36 36 36 35 34 33 33 35 36 37 37 36 35 33 37 38 38 36 38 37 33 31 29
59 59 58 57 55 58 59 59 59 58 59 58 58 57 57 51 41 39 41 48 49 48 51 51 50 52 57 58 55 49 49 44 43 43 42 41 41 42 42 42 42 41 40 43 45 43 42 41 41 40 39 39 39 38 37 36 36 36 36 37 37 36 35 36 36 34 31 30 32 34 34 34 37 38 37 37 38 38 37 37 35 36 33 29 27
57 58 58 57 56 55 58 59 58 58 59 60 59 58 57 57 54 44 40 41 44 47 47 49 49 50 51 54 55 55 42 42 42 42 41 41 41 41 41 41 41 40 40 41 41 40 42 41 42 42 43 41 39 37 37 37 37 37 36 36 36 36 35 35 35 34 31 30 31 31 33 37 37 36 39 39 35 38 36 35 33 29 30 29 30
55 56 56 57 57 55 57 58 56 58 58 58 58 58 58 57 57 55 50 42 40 41 43 44 47 48 48 49 48 48 45 41 41 41 41 41 41 41 41 41 41 40 39 42 41 40 42 44 44 44 43 42 40 38 38 38 38 38 37 37 36 36 36 36 35 34 30 31 31 30 31 34 37 37 34 34 32 32 34 32 33 31 29 28 27
55 53 54 56 57 58 58 58 58 58 59 59 58 58 57 57 57 56 55 54 53 48 42 41 41 43 45 45 46 44 42 40 41 41 40 40 40 40 40 41 40 39 40 43 44 42 46 46 45 46 45 44 40 40 39 38 37 37 37 38 38 37 36 37 36 33 31 30 30 31 33 34 36 36 35 36 36 35 33 32 34 33 32 32 31
54 49 44 48 56 57 57 57 57 57 57 57 57 57 58 57 56 56 55 54 54 54 54 51 43 41 46 45 43 41 39 40 40 40 40 39 39 40 40 43 41 41 43 45 44 44 45 45 43 45 45 44 43 43 43 41 37 37 38 38 38 38 37 36 35 34 31 32 34 36 35 35 37 36 34 34 34 33 33 33 34 34 33 34 32
52 52 52 53 56 56 56 55 55 55 56 56 56 56 56 55 54 54 53 54 53 54 53 52 48 41 42 42 41 41 39 39 39 39 39 39 39 40 42 42 43 44 43 45 46 46 46 46 47 47 46 46 44 46 44 42 37 37 39 39 38 38 37 36 35 34 35 34 35 37 37 37 37 35 36 36 37 36 35 34 34 33 34 34 31
50 50 50 51 53 54 54 54 54 54 50 52 54 55 54 54 53 54 53 53 52 53 53 50 49 48 46 45 41 39 38 38 38 38 38 38 39 42 45 44 44 45 43 45 45 45 47 46 47 48 46 45 45 46 46 44 37 38 39 39 39 38 37 37 36 34 35 35 36 38 38 36 36 37 35 34 33 35 36 36 35 33 32 32 32
50 50 49 50 51 52 52 52 52 47 52 53 54 54 52 53 52 52 52 51 50 51 52 50 47 49 48 46 44 43 39 37 38 38 38 38 38 43 46 45 45 45 45 46 46 47 47 49 49 50 49 49 48 45 45 43 41 40 39 39 39 38 37 36 36 37 37 36 37 37 36 36 36 36 34 34 33 33 34 34 34 34 33 32 32
50 43 40 41 45 50 50 49 49 51 51 51 51 51 48 50 51 51 51 51 50 51 49 50 49 49 48 44 43 42 41 41 40 38 38 40 42 44 46 46 46 46 46 46 46 46 47 49 49 49 50 50 48 48 45 42 41 40 40 39 40 40 38 38 38 38 37 37 36 37 36 35 35 35 34 34 33 33 34 34 34 35 34 33 32
49 49 45 41 46 47 47 48 49 50 48 50 50 50 50 51 51 51 51 51 50 50 50 50 49 49 46 44 42 43 44 41 40 39 39 40 41 43 46 46 46 46 46 47 47 47 48 49 49 49 49 49 49 48 48 44 43 42 42 40 39 40 41 39 38 38 38 37 36 36 35 35 35 34 34 34 34 34 34 33 33 34 35 34 33
48 48 44 43 43 49 47 47 48 48 48 48 50 49 49 49 50 48 50 50 50 49 49 48 48 46 44 40 40 42 45 43 41 41 40 40 41 42 44 46 45 46 46 47 48 48 48 49 49 49 49 48 49 47 46 44 44 42 41 39 38 39 40 42 40 39 38 37 35 35 35 35 34 34 34 34 35 35 34 34 33 33 33 33 34
46 46 46 46 47 48 48 47 48 48 47 48 48 48 48 48 49 48 48 49 46 47 47 46 45 44 40 39 40 41 44 44 42 42 42 42 42 42 44 46 48 48 48 49 49 49 48 48 48 48 47 47 47 46 45 45 44 42 41 39 37 38 38 39 40 39 39 38 35 36 35 35 34 34 34 36 34 34 34 33 33 33 33 33 33
43 43 43 43 45 46 48 49 49 49 48 48 48 45 46 48 49 48 48 46 47 46 46 45 44 44 42 39 39 41 45 45 40 42 42 42 43 43 44 45 46 49 50 50 51 50 49 49 48 48 47 48 48 45 45 45 43 42 42 41 39 39 37 37 38 38 39 40 37 35 35 35 34 33 33 33 33 33 33 33 33 33 33 33 33
40 41 41 41 41 42 43 47 48 47 48 46 45 46 47 47 49 48 48 47 46 46 46 45 44 44 44 42 42 44 46 45 44 44 43 42 43 43 43 44 46 46 48 47 49 49 48 48 47 48 48 48 49 50 49 49 48 46 42 40 39 39 39 38 38 39 39 39 37 35 35 34 34 33 33 33 33 32 32 32 32 32 32 33 33
38 38 38 40 40 41 41 42 44 45 43 46 48 47 46 47 48 48 48 48 45 46 45 44 44 44 44 45 46 46 46 46 43 43 44 44 44 45 44 45 46 46 46 46 47 48 48 47 47 46 46 48 49 49 50 50 50 49 46 44 40 40 40 39 39 38 37 36 35 34 34 34 34 33 33 33 32 32 32 32 31 31 31 31 32
36 36 36 37 38 38 39 39 39 42 42 42 44 46 47 48 48 48 47 48 47 48 46 45 45 45 44 45 45 44 46 47 46 46 45 45 45 45 45 45 45 45 44 43 45 46 45 45 43 42 41 45 48 49 49 49 49 48 49 48 46 44 45 45 45 39 38 37 35 35 34 34 34 34 33 33 32 32 32 32 32 31 31 31 31
36 35 34 34 36 37 37 37 37 38 40 40 40 41 42 42 43 43 43 45 48 46 48 48 48 47 47 47 46 46 46 47 46 45 46 46 46 46 45 45 45 45 45 46 46 46 45 44 44 45 44 46 47 48 48 48 49 48 48 49 48 46 47 45 44 43 40 39 36 35 34 34 33 33 33 33 32 31 31 32 32 32 32 31 31
35 34 33 33 33 35 36 36 35 35 37 38 38 37 37 39 40 41 42 42 43 44 46 48 48 48 47 47 46 46 46 46 46 45 46 46 46 47 47 46 45 45 46 46 45 44 43 44 46 46 45 46 45 47 48 47 47 46 47 48 47 47 44 41 44 43 40 39 38 37 35 34 32 33 33 33 32 31 32 32 32 33 32 31 31
34 33 32 32 32 31 32 34 34 35 36 37 37 36 35 34 36 38 39 40 41 42 42 42 44 46 46 47 47 47 47 45 47 46 45 45 45 45 45 45 44 45 44 44 44 45 45 46 45 45 45 45 45 45 45 45 46 47 45 43 42 37 38 39 40 41 39 41 38 37 36 34 33 33 33 34 33 33 32 32 32 32 32 31 31
33 33 32 31 31 31 31 32 32 33 33 33 35 35 35 34 32 32 33 35 38 39 40 41 41 42 42 41 41 42 43 45 48 48 48 46 45 44 44 45 45 45 43 43 43 44 43 44 45 44 44 44 45 45 45 45 45 45 45 43 36 36 36 36 37 36 39 39 39 36 36 35 35 34 34 36 34 35 33 31 31 31 31 31 31
30 29 29 29 29 30 30 30 31 31 31 31 32 32 33 33 31 31 31 31 31 32 32 33 34 36 37 37 36 36 36 37 40 46 46 47 47 46 46 45 45 45 45 44 44 44 44 44 43 42 43 40 42 44 44 45 44 44 43 39 37 37 37 37 40 37 37 38 38 37 36 36 36 35 33 33 34 34 32 32 31 31 29 29 30